Time,TemperatureF,DewpointF,PressureIn,WindDirection,WindDirectionDegrees,WindSpeedMPH,WindSpeedGustMPH,Humidity,HourlyPrecipIn,Conditions,Clouds,dailyrainin,SoftwareType,DateUTC
2013-02-22 00:04:00,41.6,34.9,30.17,NW,318,0.0,0.0,77,0.00,,---,0.00,VWS V14.01,2013-02-22 08:04:00,
2013-02-22 00:09:00,41.6,34.9,30.17,NW,318,0.0,0.0,77,0.00,,---,0.00,VWS V14.01,2013-02-22 08:09:00,
2013-02-22 00:14:00,41.6,34.6,30.17,NW,318,0.0,0.0,76,0.00,,---,0.00,VWS V14.01,2013-02-22 08:14:00,
2013-02-22 00:19:00,41.6,34.9,30.17,NW,318,0.0,0.0,77,0.00,,---,0.00,VWS V14.01,2013-02-22 08:19:00,
2013-02-22 00:24:00,41.5,34.5,30.17,NW,318,0.0,0.0,76,0.00,,---,0.00,VWS V14.01,2013-02-22 08:24:00,
2013-02-22 00:29:00,41.5,34.5,30.17,NW,318,0.0,0.0,76,0.00,,---,0.00,VWS V14.01,2013-02-22 08:29:00,
2013-02-22 00:34:00,41.5,35.2,30.17,NW,318,0.0,0.0,78,0.00,,---,0.00,VWS V14.01,2013-02-22 08:34:00,
2013-02-22 00:39:00,41.4,35.1,30.17,NW,318,0.0,0.0,78,0.00,,---,0.00,VWS V14.01,2013-02-22 08:39:00,
2013-02-22 00:44:00,41.4,35.1,30.17,NW,318,0.0,0.0,78,0.00,,---,0.00,VWS V14.01,2013-02-22 08:44:00,
2013-02-22 00:49:00,41.3,35.0,30.17,NW,318,0.0,0.0,78,0.00,,---,0.00,VWS V14.01,2013-02-22 08:49:00,
2013-02-22 00:54:00,41.3,35.0,30.17,NW,318,0.0,0.0,78,0.00,,---,0.00,VWS V14.01,2013-02-22 08:54:00,
2013-02-22 00:59:00,41.2,34.9,30.18,NW,318,0.0,0.0,78,0.00,,---,0.00,VWS V14.01,2013-02-22 08:59:00,
2013-02-22 01:04:00,41.3,35.0,30.18,NW,318,0.0,0.0,78,0.00,,---,0.00,VWS V14.01,2013-02-22 09:04:00,
2013-02-22 01:09:00,41.3,34.7,30.18,NW,318,0.0,0.0,77,0.00,,---,0.00,VWS V14.01,2013-02-22 09:09:00,
2013-02-22 01:14:00,41.4,34.7,30.18,NW,318,0.0,0.0,77,0.00,,---,0.00,VWS V14.01,2013-02-22 09:14:00,
2013-02-22 01:19:00,41.5,34.8,30.19,NW,318,0.0,0.0,77,0.00,,---,0.00,VWS V14.01,2013-02-22 09:19:00,
2013-02-22 01:24:00,41.5,35.2,30.19,NW,318,0.0,0.0,78,0.00,,---,0.00,VWS V14.01,2013-02-22 09:24:00,
2013-02-22 01:29:00,41.4,35.1,30.19,NW,318,0.0,0.0,78,0.00,,---,0.00,VWS V14.01,2013-02-22 09:29:00,
2013-02-22 01:34:00,41.4,35.1,30.18,NW,318,0.0,0.0,78,0.00,,---,0.00,VWS V14.01,2013-02-22 09:34:00,
2013-02-22 01:39:00,41.3,35.3,30.19,NW,318,0.0,0.0,79,0.00,,---,0.00,VWS V14.01,2013-02-22 09:39:00,
2013-02-22 01:44:00,41.1,35.1,30.19,NW,318,0.0,0.0,79,0.00,,---,0.00,VWS V14.01,2013-02-22 09:44:00,
2013-02-22 01:49:00,40.9,34.9,30.18,NW,318,0.0,0.0,79,0.00,,---,0.00,VWS V14.01,2013-02-22 09:49:00,
2013-02-22 01:54:00,40.8,35.1,30.18,NW,318,0.0,0.0,80,0.00,,---,0.00,VWS V14.01,2013-02-22 09:54:00,
2013-02-22 01:59:00,40.6,34.9,30.18,NW,318,2.0,3.0,80,0.00,,---,0.00,VWS V14.01,2013-02-22 09:59:00,
2013-02-22 02:04:00,40.6,34.9,30.18,NW,320,0.0,0.0,80,0.00,,---,0.00,VWS V14.01,2013-02-22 10:04:00,
2013-02-22 02:09:00,40.6,34.9,30.18,NW,320,0.0,0.0,80,0.00,,---,0.00,VWS V14.01,2013-02-22 10:09:00,
2013-02-22 02:14:00,40.6,34.9,30.18,NW,320,0.0,0.0,80,0.00,,---,0.00,VWS V14.01,2013-02-22 10:14:00,
2013-02-22 02:19:00,40.6,34.9,30.18,NW,320,0.0,0.0,80,0.00,,---,0.00,VWS V14.01,2013-02-22 10:19:00,
2013-02-22 02:24:00,40.6,34.9,30.18,NW,320,0.0,0.0,80,0.00,,---,0.00,VWS V14.01,2013-02-22 10:24:00,
2013-02-22 02:29:00,40.6,34.9,30.18,NW,320,2.0,2.0,80,0.00,,---,0.00,VWS V14.01,2013-02-22 10:29:00,
2013-02-22 02:34:00,40.6,34.9,30.18,NW,321,3.0,3.0,80,0.00,,---,0.00,VWS V14.01,2013-02-22 10:34:00,
2013-02-22 02:39:00,40.5,34.8,30.18,NW,326,3.0,4.0,80,0.00,,---,0.00,VWS V14.01,2013-02-22 10:39:00,
2013-02-22 02:44:00,40.5,34.8,30.18,NNW,338,3.0,3.0,80,0.00,,---,0.00,VWS V14.01,2013-02-22 10:44:00,
2013-02-22 02:49:00,40.5,34.8,30.18,NNW,339,0.0,0.0,80,0.00,,---,0.00,VWS V14.01,2013-02-22 10:49:00,
2013-02-22 02:54:00,40.4,35.0,30.18,NNW,339,0.0,0.0,81,0.00,,---,0.00,VWS V14.01,2013-02-22 10:54:00,
2013-02-22 02:59:00,40.4,35.0,30.18,NNW,338,0.0,0.0,81,0.00,,---,0.00,VWS V14.01,2013-02-22 10:59:00,
2013-02-22 03:04:00,40.3,34.6,30.18,NNW,339,0.0,0.0,80,0.00,,---,0.00,VWS V14.01,2013-02-22 11:04:00,
2013-02-22 03:09:00,40.2,34.8,30.19,NNW,339,0.0,0.0,81,0.00,,---,0.00,VWS V14.01,2013-02-22 11:09:00,
2013-02-22 03:14:00,40.0,35.0,30.19,NNW,339,0.0,0.0,82,0.00,,---,0.00,VWS V14.01,2013-02-22 11:14:00,
2013-02-22 03:19:00,39.8,34.5,30.19,NNW,339,0.0,0.0,81,0.00,,---,0.00,VWS V14.01,2013-02-22 11:19:00,
2013-02-22 03:24:00,39.8,34.8,30.19,NNW,339,0.0,0.0,82,0.00,,---,0.00,VWS V14.01,2013-02-22 11:24:00,
2013-02-22 03:29:00,39.7,34.7,30.19,NNW,338,0.0,0.0,82,0.00,,---,0.00,VWS V14.01,2013-02-22 11:29:00,
2013-02-22 03:34:00,40.1,36.8,30.18,NNW,339,0.0,0.0,88,0.00,,---,0.00,VWS V14.01,2013-02-22 11:34:00,
2013-02-22 03:39:00,39.9,35.5,30.19,NNW,339,0.0,0.0,84,0.00,,---,0.00,VWS V14.01,2013-02-22 11:39:00,
2013-02-22 03:44:00,39.7,35.0,30.18,NNW,339,0.0,0.0,83,0.00,,---,0.00,VWS V14.01,2013-02-22 11:44:00,
2013-02-22 03:49:00,39.5,34.8,30.18,NNW,339,0.0,0.0,83,0.00,,---,0.00,VWS V14.01,2013-02-22 11:49:00,
2013-02-22 03:54:00,39.3,34.6,30.19,NNW,339,0.0,0.0,83,0.00,,---,0.00,VWS V14.01,2013-02-22 11:54:00,
2013-02-22 03:59:00,39.1,34.4,30.19,NNW,339,0.0,0.0,83,0.00,,---,0.00,VWS V14.01,2013-02-22 11:59:00,
2013-02-22 04:04:00,38.8,34.1,30.19,NNW,339,0.0,0.0,83,0.00,,---,0.00,VWS V14.01,2013-02-22 12:04:00,
2013-02-22 04:09:00,38.6,33.9,30.19,NNW,339,0.0,0.0,83,0.00,,---,0.00,VWS V14.01,2013-02-22 12:09:00,
2013-02-22 04:14:00,38.5,34.1,30.19,NNW,339,0.0,0.0,84,0.00,,---,0.00,VWS V14.01,2013-02-22 12:14:00,
2013-02-22 04:19:00,38.2,33.5,30.20,NNW,339,0.0,0.0,83,0.00,,---,0.00,VWS V14.01,2013-02-22 12:19:00,
2013-02-22 04:24:00,38.1,33.7,30.20,NNW,339,0.0,0.0,84,0.00,,---,0.00,VWS V14.01,2013-02-22 12:24:00,
2013-02-22 04:29:00,38.0,33.6,30.19,NNW,339,0.0,0.0,84,0.00,,---,0.00,VWS V14.01,2013-02-22 12:29:00,
2013-02-22 04:34:00,37.9,33.5,30.20,NNW,339,0.0,0.0,84,0.00,,---,0.00,VWS V14.01,2013-02-22 12:34:00,
2013-02-22 04:39:00,37.7,33.6,30.20,NNW,339,0.0,0.0,85,0.00,,---,0.00,VWS V14.01,2013-02-22 12:39:00,
2013-02-22 04:44:00,37.6,33.2,30.20,NNW,339,0.0,0.0,84,0.00,,---,0.00,VWS V14.01,2013-02-22 12:44:00,
2013-02-22 04:49:00,37.5,33.1,30.20,NNW,339,0.0,0.0,84,0.00,,---,0.00,VWS V14.01,2013-02-22 12:49:00,
2013-02-22 04:54:00,37.3,32.9,30.20,NNW,339,0.0,0.0,84,0.00,,---,0.00,VWS V14.01,2013-02-22 12:54:00,
2013-02-22 04:59:00,37.2,33.1,30.21,NNW,339,0.0,0.0,85,0.00,,---,0.00,VWS V14.01,2013-02-22 12:59:00,
2013-02-22 05:04:00,37.1,33.0,30.21,NNW,339,0.0,0.0,85,0.00,,---,0.00,VWS V14.01,2013-02-22 13:04:00,
2013-02-22 05:09:00,37.1,33.0,30.21,NNW,339,3.0,3.0,85,0.00,,---,0.00,VWS V14.01,2013-02-22 13:09:00,
2013-02-22 05:14:00,37.2,33.1,30.20,NNW,339,0.0,0.0,85,0.00,,---,0.00,VWS V14.01,2013-02-22 13:14:00,
2013-02-22 05:19:00,37.3,33.2,30.21,NNW,339,0.0,0.0,85,0.00,,---,0.00,VWS V14.01,2013-02-22 13:19:00,
2013-02-22 05:24:00,37.4,33.3,30.21,NNW,339,0.0,0.0,85,0.00,,---,0.00,VWS V14.01,2013-02-22 13:24:00,
2013-02-22 05:29:00,37.5,33.4,30.22,NNW,339,0.0,0.0,85,0.00,,---,0.00,VWS V14.01,2013-02-22 13:29:00,
2013-02-22 05:34:00,37.5,33.4,30.21,NNW,339,0.0,0.0,85,0.00,,---,0.00,VWS V14.01,2013-02-22 13:34:00,
2013-02-22 05:39:00,37.5,33.4,30.21,NNW,339,0.0,0.0,85,0.00,,---,0.00,VWS V14.01,2013-02-22 13:39:00,
2013-02-22 05:44:00,37.5,33.4,30.22,NNW,339,0.0,0.0,85,0.00,,---,0.00,VWS V14.01,2013-02-22 13:44:00,
2013-02-22 05:49:00,37.5,33.4,30.21,NNW,339,0.0,0.0,85,0.00,,---,0.00,VWS V14.01,2013-02-22 13:49:00,
2013-02-22 05:54:00,37.4,33.3,30.22,NNW,339,2.0,2.0,85,0.00,,---,0.00,VWS V14.01,2013-02-22 13:54:00,
2013-02-22 05:59:00,37.4,33.3,30.22,NNW,339,0.0,0.0,85,0.00,,---,0.00,VWS V14.01,2013-02-22 13:59:00,
2013-02-22 06:04:00,37.4,33.3,30.23,NNW,339,0.0,0.0,85,0.00,,---,0.00,VWS V14.01,2013-02-22 14:04:00,
2013-02-22 06:09:00,37.4,33.6,30.23,NNW,339,0.0,0.0,86,0.00,,---,0.00,VWS V14.01,2013-02-22 14:09:00,
2013-02-22 06:14:00,37.3,33.2,30.23,NNW,339,0.0,0.0,85,0.00,,---,0.00,VWS V14.01,2013-02-22 14:14:00,
2013-02-22 06:19:00,37.2,33.4,30.24,NNW,339,0.0,0.0,86,0.00,,---,0.00,VWS V14.01,2013-02-22 14:19:00,
2013-02-22 06:24:00,37.1,33.3,30.24,NNW,339,0.0,0.0,86,0.00,,---,0.00,VWS V14.01,2013-02-22 14:24:00,
2013-02-22 06:29:00,37.0,33.2,30.23,NNW,339,0.0,0.0,86,0.00,,---,0.00,VWS V14.01,2013-02-22 14:29:00,
2013-02-22 06:34:00,37.0,32.9,30.23,NNW,339,0.0,0.0,85,0.00,,---,0.00,VWS V14.01,2013-02-22 14:34:00,
2013-02-22 06:39:00,36.9,33.1,30.23,NNW,339,0.0,0.0,86,0.00,,---,0.00,VWS V14.01,2013-02-22 14:39:00,
2013-02-22 06:44:00,36.9,33.1,30.23,NNW,339,0.0,0.0,86,0.00,,---,0.00,VWS V14.01,2013-02-22 14:44:00,
2013-02-22 06:49:00,36.9,33.4,30.23,NNW,339,0.0,0.0,87,0.00,,---,0.00,VWS V14.01,2013-02-22 14:49:00,
2013-02-22 06:54:00,36.9,33.1,30.23,NNW,339,0.0,0.0,86,0.00,,---,0.00,VWS V14.01,2013-02-22 14:54:00,
2013-02-22 06:59:00,36.9,33.4,30.23,NNW,339,0.0,0.0,87,0.00,,---,0.00,VWS V14.01,2013-02-22 14:59:00,
2013-02-22 07:04:00,37.0,33.5,30.23,NNW,340,3.0,3.0,87,0.00,,---,0.00,VWS V14.01,2013-02-22 15:04:00,
2013-02-22 07:09:00,37.2,33.7,30.23,NNW,348,3.0,3.0,87,0.00,,---,0.00,VWS V14.01,2013-02-22 15:09:00,
2013-02-22 07:14:00,37.4,33.9,30.24,North,350,2.0,3.0,87,0.00,,---,0.00,VWS V14.01,2013-02-22 15:14:00,
2013-02-22 07:19:00,37.5,33.7,30.23,North,350,0.0,0.0,86,0.00,,---,0.00,VWS V14.01,2013-02-22 15:19:00,
2013-02-22 07:24:00,37.7,33.9,30.24,North,351,2.0,3.0,86,0.00,,---,0.00,VWS V14.01,2013-02-22 15:24:00,
2013-02-22 07:29:00,37.9,34.1,30.24,North,355,1.0,2.0,86,0.00,,---,0.00,VWS V14.01,2013-02-22 15:29:00,
2013-02-22 07:34:00,38.2,34.1,30.24,North,355,2.0,2.0,85,0.00,,---,0.00,VWS V14.01,2013-02-22 15:34:00,
2013-02-22 07:39:00,38.5,34.4,30.24,North,360,1.0,4.0,85,0.00,,---,0.00,VWS V14.01,2013-02-22 15:39:00,
2013-02-22 07:44:00,38.8,34.7,30.25,North,360,0.0,0.0,85,0.00,,---,0.00,VWS V14.01,2013-02-22 15:44:00,
2013-02-22 07:49:00,39.2,35.1,30.25,North,360,0.0,0.0,85,0.00,,---,0.00,VWS V14.01,2013-02-22 15:49:00,
2013-02-22 07:54:00,39.5,35.1,30.25,North,360,0.0,0.0,84,0.00,,---,0.00,VWS V14.01,2013-02-22 15:54:00,
2013-02-22 07:59:00,39.9,35.5,30.25,North,360,0.0,0.0,84,0.00,,---,0.00,VWS V14.01,2013-02-22 15:59:00,
2013-02-22 08:04:00,40.4,35.3,30.25,North,360,2.0,3.0,82,0.00,,---,0.00,VWS V14.01,2013-02-22 16:04:00,
2013-02-22 08:09:00,40.9,35.5,30.25,North,360,1.0,2.0,81,0.00,,---,0.00,VWS V14.01,2013-02-22 16:09:00,
2013-02-22 08:14:00,41.5,36.1,30.25,North,360,2.0,4.0,81,0.00,,---,0.00,VWS V14.01,2013-02-22 16:14:00,
2013-02-22 08:19:00,42.3,36.6,30.25,North,360,1.0,2.0,80,0.00,,---,0.00,VWS V14.01,2013-02-22 16:19:00,
2013-02-22 08:24:00,42.9,36.5,30.26,North,5,2.0,3.0,78,0.00,,---,0.00,VWS V14.01,2013-02-22 16:24:00,
2013-02-22 08:29:00,43.8,37.1,30.25,ENE,60,3.0,3.0,77,0.00,,---,0.00,VWS V14.01,2013-02-22 16:29:00,
2013-02-22 08:34:00,44.7,37.6,30.25,East,85,4.0,4.0,76,0.00,,---,0.00,VWS V14.01,2013-02-22 16:34:00,
2013-02-22 08:39:00,45.5,38.0,30.26,ESE,113,1.0,2.0,75,0.00,,---,0.00,VWS V14.01,2013-02-22 16:39:00,
2013-02-22 08:44:00,46.2,37.7,30.26,SE,138,2.0,3.0,72,0.00,,---,0.00,VWS V14.01,2013-02-22 16:44:00,
2013-02-22 08:49:00,46.6,38.4,30.26,SE,138,2.0,2.0,73,0.00,,---,0.00,VWS V14.01,2013-02-22 16:49:00,
2013-02-22 08:54:00,47.3,38.7,30.26,SE,134,3.0,3.0,72,0.00,,---,0.00,VWS V14.01,2013-02-22 16:54:00,
2013-02-22 08:59:00,48.2,38.9,30.26,SE,132,1.0,4.0,70,0.00,,---,0.00,VWS V14.01,2013-02-22 16:59:00,
2013-02-22 09:04:00,48.8,38.7,30.26,SE,133,5.0,5.0,68,0.00,,---,0.00,VWS V14.01,2013-02-22 17:04:00,
2013-02-22 09:09:00,49.2,38.7,30.26,SE,133,1.0,1.0,67,0.00,,---,0.00,VWS V14.01,2013-02-22 17:09:00,
2013-02-22 09:14:00,49.6,39.1,30.26,SE,132,0.0,0.0,67,0.00,,---,0.00,VWS V14.01,2013-02-22 17:14:00,
2013-02-22 09:19:00,50.0,39.1,30.26,SE,132,2.0,4.0,66,0.00,,---,0.00,VWS V14.01,2013-02-22 17:19:00,
2013-02-22 09:24:00,50.1,39.2,30.26,SE,144,0.0,4.0,66,0.00,,---,0.00,VWS V14.01,2013-02-22 17:24:00,
2013-02-22 09:29:00,50.2,39.3,30.26,SSE,148,3.0,5.0,66,0.00,,---,0.00,VWS V14.01,2013-02-22 17:29:00,
2013-02-22 09:34:00,50.1,39.2,30.27,SSE,147,3.0,6.0,66,0.00,,---,0.00,VWS V14.01,2013-02-22 17:34:00,
2013-02-22 09:39:00,50.2,38.9,30.26,SSE,156,2.0,3.0,65,0.00,,---,0.00,VWS V14.01,2013-02-22 17:39:00,
2013-02-22 09:44:00,50.5,39.2,30.27,SE,136,4.0,5.0,65,0.00,,---,0.00,VWS V14.01,2013-02-22 17:44:00,
2013-02-22 09:49:00,51.0,39.7,30.27,SE,136,2.0,4.0,65,0.00,,---,0.00,VWS V14.01,2013-02-22 17:49:00,
2013-02-22 09:54:00,51.5,39.3,30.26,SE,136,0.0,0.0,63,0.00,,---,0.00,VWS V14.01,2013-02-22 17:54:00,
2013-02-22 09:59:00,51.8,39.6,30.26,SSE,155,2.0,4.0,63,0.00,,---,0.00,VWS V14.01,2013-02-22 17:59:00,
2013-02-22 10:04:00,51.8,39.6,30.26,SSE,157,3.0,4.0,63,0.00,,---,0.00,VWS V14.01,2013-02-22 18:04:00,
2013-02-22 10:09:00,52.4,39.8,30.26,SE,143,5.0,5.0,62,0.00,,---,0.00,VWS V14.01,2013-02-22 18:09:00,
2013-02-22 10:14:00,52.7,39.6,30.26,SE,143,5.0,5.0,61,0.00,,---,0.00,VWS V14.01,2013-02-22 18:14:00,
2013-02-22 10:19:00,52.8,39.3,30.26,SE,145,5.0,7.0,60,0.00,,---,0.00,VWS V14.01,2013-02-22 18:19:00,
2013-02-22 10:24:00,52.9,39.4,30.26,SSE,148,0.0,0.0,60,0.00,,---,0.00,VWS V14.01,2013-02-22 18:24:00,
2013-02-22 10:29:00,53.1,38.7,30.26,SSE,148,0.0,0.0,58,0.00,,---,0.00,VWS V14.01,2013-02-22 18:29:00,
2013-02-22 10:34:00,53.4,39.0,30.26,SSE,149,1.0,3.0,58,0.00,,---,0.00,VWS V14.01,2013-02-22 18:34:00,
2013-02-22 10:39:00,53.6,39.2,30.26,SE,146,1.0,5.0,58,0.00,,---,0.00,VWS V14.01,2013-02-22 18:39:00,
2013-02-22 10:44:00,54.2,39.3,30.26,SE,140,2.0,4.0,57,0.00,,---,0.00,VWS V14.01,2013-02-22 18:44:00,
2013-02-22 10:49:00,54.8,39.0,30.25,SE,140,3.0,5.0,55,0.00,,---,0.00,VWS V14.01,2013-02-22 18:49:00,
2013-02-22 10:54:00,55.1,38.8,30.26,SE,139,1.0,1.0,54,0.00,,---,0.00,VWS V14.01,2013-02-22 18:54:00,
2013-02-22 10:59:00,55.4,38.6,30.26,ESE,120,1.0,1.0,53,0.00,,---,0.00,VWS V14.01,2013-02-22 18:59:00,
2013-02-22 11:04:00,55.7,39.8,30.26,ESE,112,0.0,0.0,55,0.00,,---,0.00,VWS V14.01,2013-02-22 19:04:00,
2013-02-22 11:09:00,55.5,39.6,30.25,ESE,118,3.0,4.0,55,0.00,,---,0.00,VWS V14.01,2013-02-22 19:09:00,
2013-02-22 11:14:00,55.6,38.3,30.26,SSW,192,2.0,2.0,52,0.00,,---,0.00,VWS V14.01,2013-02-22 19:14:00,
2013-02-22 11:19:00,55.7,38.4,30.25,WSW,247,6.0,6.0,52,0.00,,---,0.00,VWS V14.01,2013-02-22 19:19:00,
2013-02-22 11:24:00,55.9,39.0,30.25,SSE,162,1.0,2.0,53,0.00,,---,0.00,VWS V14.01,2013-02-22 19:24:00,
2013-02-22 11:29:00,56.3,38.4,30.25,SSE,161,0.0,0.0,51,0.00,,---,0.00,VWS V14.01,2013-02-22 19:29:00,
2013-02-22 11:34:00,56.6,38.7,30.25,WSW,253,2.0,3.0,51,0.00,,---,0.00,VWS V14.01,2013-02-22 19:34:00,
2013-02-22 11:39:00,56.6,38.7,30.25,SSW,211,2.0,2.0,51,0.00,,---,0.00,VWS V14.01,2013-02-22 19:39:00,
2013-02-22 11:44:00,56.5,39.6,30.25,SSE,161,2.0,3.0,53,0.00,,---,0.00,VWS V14.01,2013-02-22 19:44:00,
2013-02-22 11:49:00,56.8,39.9,30.25,SSE,159,1.0,1.0,53,0.00,,---,0.00,VWS V14.01,2013-02-22 19:49:00,
2013-02-22 11:54:00,56.9,39.5,30.25,WSW,248,5.0,5.0,52,0.00,,---,0.00,VWS V14.01,2013-02-22 19:54:00,
2013-02-22 11:59:00,56.9,39.5,30.25,South,173,2.0,4.0,52,0.00,,---,0.00,VWS V14.01,2013-02-22 19:59:00,
2013-02-22 12:04:00,56.8,38.9,30.25,South,173,0.0,0.0,51,0.00,,---,0.00,VWS V14.01,2013-02-22 20:04:00,
2013-02-22 12:09:00,56.8,38.9,30.25,South,178,2.0,2.0,51,0.00,,---,0.00,VWS V14.01,2013-02-22 20:09:00,
2013-02-22 12:14:00,57.1,39.2,30.25,South,178,3.0,4.0,51,0.00,,---,0.00,VWS V14.01,2013-02-22 20:14:00,
2013-02-22 12:19:00,57.4,38.4,30.24,SW,214,4.0,5.0,49,0.00,,---,0.00,VWS V14.01,2013-02-22 20:19:00,
2013-02-22 12:24:00,57.4,38.9,30.24,South,190,3.0,4.0,50,0.00,,---,0.00,VWS V14.01,2013-02-22 20:24:00,
2013-02-22 12:29:00,57.6,38.6,30.24,SW,236,3.0,3.0,49,0.00,,---,0.00,VWS V14.01,2013-02-22 20:29:00,
2013-02-22 12:34:00,57.8,38.8,30.24,SSW,211,2.0,3.0,49,0.00,,---,0.00,VWS V14.01,2013-02-22 20:34:00,
2013-02-22 12:39:00,58.1,39.1,30.24,WSW,256,3.0,6.0,49,0.00,,---,0.00,VWS V14.01,2013-02-22 20:39:00,
2013-02-22 12:44:00,58.3,38.7,30.24,SW,230,1.0,1.0,48,0.00,,---,0.00,VWS V14.01,2013-02-22 20:44:00,
2013-02-22 12:49:00,58.4,38.3,30.23,SW,229,4.0,4.0,47,0.00,,---,0.00,VWS V14.01,2013-02-22 20:49:00,
2013-02-22 12:54:00,58.6,39.0,30.23,SW,219,4.0,4.0,48,0.00,,---,0.00,VWS V14.01,2013-02-22 20:54:00,
2013-02-22 12:59:00,58.9,39.8,30.23,SW,229,2.0,2.0,49,0.00,,---,0.00,VWS V14.01,2013-02-22 20:59:00,
2013-02-22 13:04:00,59.0,37.7,30.22,WSW,239,0.0,0.0,45,0.00,,---,0.00,VWS V14.01,2013-02-22 21:04:00,
2013-02-22 13:09:00,59.3,38.5,30.22,SW,220,4.0,5.0,46,0.00,,---,0.00,VWS V14.01,2013-02-22 21:09:00,
2013-02-22 13:14:00,59.7,38.3,30.22,SSE,156,0.0,1.0,45,0.00,,---,0.00,VWS V14.01,2013-02-22 21:14:00,
2013-02-22 13:19:00,59.7,38.3,30.22,South,169,2.0,4.0,45,0.00,,---,0.00,VWS V14.01,2013-02-22 21:19:00,
2013-02-22 13:24:00,59.7,37.8,30.22,South,169,1.0,2.0,44,0.00,,---,0.00,VWS V14.01,2013-02-22 21:24:00,
2013-02-22 13:29:00,59.5,38.2,30.22,South,171,4.0,4.0,45,0.00,,---,0.00,VWS V14.01,2013-02-22 21:29:00,
2013-02-22 13:34:00,59.4,38.1,30.21,South,172,2.0,3.0,45,0.00,,---,0.00,VWS V14.01,2013-02-22 21:34:00,
2013-02-22 13:39:00,59.1,37.8,30.21,SSW,212,0.0,2.0,45,0.00,,---,0.00,VWS V14.01,2013-02-22 21:39:00,
2013-02-22 13:44:00,59.2,37.9,30.21,West,271,0.0,0.0,45,0.00,,---,0.00,VWS V14.01,2013-02-22 21:44:00,
2013-02-22 13:49:00,59.4,38.1,30.21,SW,219,1.0,3.0,45,0.00,,---,0.00,VWS V14.01,2013-02-22 21:49:00,
2013-02-22 13:54:00,59.8,38.4,30.20,SW,215,2.0,2.0,45,0.00,,---,0.00,VWS V14.01,2013-02-22 21:54:00,
2013-02-22 13:59:00,60.3,38.3,30.20,South,186,3.0,4.0,44,0.00,,---,0.00,VWS V14.01,2013-02-22 21:59:00,
2013-02-22 14:04:00,60.7,39.3,30.20,SSE,161,3.0,3.0,45,0.00,,---,0.00,VWS V14.01,2013-02-22 22:04:00,
2013-02-22 14:09:00,60.9,37.7,30.20,SSE,155,3.0,4.0,42,0.00,,---,0.00,VWS V14.01,2013-02-22 22:09:00,
2013-02-22 14:14:00,61.1,38.5,30.19,SE,139,2.0,2.0,43,0.00,,---,0.00,VWS V14.01,2013-02-22 22:14:00,
2013-02-22 14:19:00,61.4,39.3,30.19,SE,139,0.0,0.0,44,0.00,,---,0.00,VWS V14.01,2013-02-22 22:19:00,
2013-02-22 14:24:00,61.9,38.0,30.19,SE,139,2.0,4.0,41,0.00,,---,0.00,VWS V14.01,2013-02-22 22:24:00,
2013-02-22 14:29:00,62.2,38.2,30.19,SE,139,0.0,0.0,41,0.00,,---,0.00,VWS V14.01,2013-02-22 22:29:00,
2013-02-22 14:34:00,62.3,38.3,30.19,SE,142,0.0,1.0,41,0.00,,---,0.00,VWS V14.01,2013-02-22 22:34:00,
2013-02-22 14:39:00,62.3,37.7,30.19,SE,142,0.0,0.0,40,0.00,,---,0.00,VWS V14.01,2013-02-22 22:39:00,
2013-02-22 14:44:00,62.3,37.0,30.19,SE,142,0.0,0.0,39,0.00,,---,0.00,VWS V14.01,2013-02-22 22:44:00,
2013-02-22 14:49:00,62.5,37.2,30.19,SE,143,1.0,3.0,39,0.00,,---,0.00,VWS V14.01,2013-02-22 22:49:00,
2013-02-22 14:54:00,62.6,36.7,30.19,SE,143,0.0,0.0,38,0.00,,---,0.00,VWS V14.01,2013-02-22 22:54:00,
2013-02-22 14:59:00,63.1,37.1,30.18,SE,143,0.0,1.0,38,0.00,,---,0.00,VWS V14.01,2013-02-22 22:59:00,
2013-02-22 15:04:00,63.4,37.4,30.18,SE,143,0.0,1.0,38,0.00,,---,0.00,VWS V14.01,2013-02-22 23:04:00,
2013-02-22 15:09:00,63.7,37.0,30.18,SE,144,0.0,0.0,37,0.00,,---,0.00,VWS V14.01,2013-02-22 23:09:00,
2013-02-22 15:14:00,63.7,37.0,30.19,SE,144,0.0,0.0,37,0.00,,---,0.00,VWS V14.01,2013-02-22 23:14:00,
2013-02-22 15:19:00,64.0,36.5,30.18,SE,144,0.0,0.0,36,0.00,,---,0.00,VWS V14.01,2013-02-22 23:19:00,
2013-02-22 15:24:00,64.3,36.8,30.18,SE,144,0.0,1.0,36,0.00,,---,0.00,VWS V14.01,2013-02-22 23:24:00,
2013-02-22 15:29:00,64.5,37.0,30.18,SSE,164,1.0,3.0,36,0.00,,---,0.00,VWS V14.01,2013-02-22 23:29:00,
2013-02-22 15:34:00,64.3,36.8,30.18,SSE,165,0.0,0.0,36,0.00,,---,0.00,VWS V14.01,2013-02-22 23:34:00,
2013-02-22 15:39:00,64.2,36.0,30.18,South,177,1.0,1.0,35,0.00,,---,0.00,VWS V14.01,2013-02-22 23:39:00,
2013-02-22 15:44:00,63.8,35.7,30.18,South,178,0.0,0.0,35,0.00,,---,0.00,VWS V14.01,2013-02-22 23:44:00,
2013-02-22 15:49:00,63.9,36.5,30.18,South,178,3.0,3.0,36,0.00,,---,0.00,VWS V14.01,2013-02-22 23:49:00,
2013-02-22 15:54:00,64.0,35.8,30.18,South,178,0.0,1.0,35,0.00,,---,0.00,VWS V14.01,2013-02-22 23:54:00,
2013-02-22 15:59:00,64.2,36.0,30.18,South,181,0.0,1.0,35,0.00,,---,0.00,VWS V14.01,2013-02-22 23:59:00,
2013-02-22 16:04:00,64.3,37.5,30.18,South,177,1.0,3.0,37,0.00,,---,0.00,VWS V14.01,2013-02-23 00:04:00,
2013-02-22 16:09:00,64.3,38.8,30.18,ESE,107,4.0,5.0,39,0.00,,---,0.00,VWS V14.01,2013-02-23 00:09:00,
2013-02-22 16:14:00,64.1,38.7,30.18,SE,132,4.0,4.0,39,0.00,,---,0.00,VWS V14.01,2013-02-23 00:14:00,
2013-02-22 16:19:00,63.8,39.0,30.18,SE,135,6.0,6.0,40,0.00,,---,0.00,VWS V14.01,2013-02-23 00:19:00,
2013-02-22 16:24:00,63.1,39.0,30.18,SSE,151,3.0,3.0,41,0.00,,---,0.00,VWS V14.01,2013-02-23 00:24:00,
2013-02-22 16:29:00,62.8,38.8,30.18,SE,136,2.0,4.0,41,0.00,,---,0.00,VWS V14.01,2013-02-23 00:29:00,
2013-02-22 16:34:00,62.5,39.1,30.18,SSE,162,4.0,4.0,42,0.00,,---,0.00,VWS V14.01,2013-02-23 00:34:00,
2013-02-22 16:39:00,62.2,39.5,30.18,SE,128,5.0,7.0,43,0.00,,---,0.00,VWS V14.01,2013-02-23 00:39:00,
2013-02-22 16:44:00,61.7,39.6,30.17,ESE,103,4.0,4.0,44,0.00,,---,0.00,VWS V14.01,2013-02-23 00:44:00,
2013-02-22 16:49:00,61.4,39.3,30.17,ESE,119,3.0,3.0,44,0.00,,---,0.00,VWS V14.01,2013-02-23 00:49:00,
2013-02-22 16:54:00,61.2,39.7,30.17,SE,135,6.0,6.0,45,0.00,,---,0.00,VWS V14.01,2013-02-23 00:54:00,
2013-02-22 16:59:00,60.9,39.4,30.17,SE,132,2.0,3.0,45,0.00,,---,0.00,VWS V14.01,2013-02-23 00:59:00,
2013-02-22 17:04:00,60.7,39.3,30.17,ESE,109,6.0,6.0,45,0.00,,---,0.00,VWS V14.01,2013-02-23 01:04:00,
2013-02-22 17:09:00,60.4,39.0,30.16,SE,136,6.0,6.0,45,0.00,,---,0.00,VWS V14.01,2013-02-23 01:09:00,
2013-02-22 17:14:00,60.3,39.5,30.16,SSE,150,5.0,5.0,46,0.00,,---,0.00,VWS V14.01,2013-02-23 01:14:00,
2013-02-22 17:19:00,60.0,39.7,30.16,ESE,109,6.0,7.0,47,0.00,,---,0.00,VWS V14.01,2013-02-23 01:19:00,
2013-02-22 17:24:00,59.8,39.5,30.16,ESE,119,3.0,5.0,47,0.00,,---,0.00,VWS V14.01,2013-02-23 01:24:00,
2013-02-22 17:29:00,59.6,39.4,30.16,ESE,107,3.0,5.0,47,0.00,,---,0.00,VWS V14.01,2013-02-23 01:29:00,
2013-02-22 17:34:00,59.3,39.6,30.16,ESE,121,2.0,4.0,48,0.00,,---,0.00,VWS V14.01,2013-02-23 01:34:00,
2013-02-22 17:39:00,59.0,39.4,30.16,ESE,113,6.0,9.0,48,0.00,,---,0.00,VWS V14.01,2013-02-23 01:39:00,
2013-02-22 17:44:00,59.0,39.9,30.16,ESE,106,2.0,11.0,49,0.00,,---,0.00,VWS V14.01,2013-02-23 01:44:00,
2013-02-22 17:49:00,58.7,39.6,30.17,ESE,123,6.0,6.0,49,0.00,,---,0.00,VWS V14.01,2013-02-23 01:49:00,
2013-02-22 17:54:00,58.5,39.4,30.17,ESE,116,3.0,4.0,49,0.00,,---,0.00,VWS V14.01,2013-02-23 01:54:00,
2013-02-22 17:59:00,58.2,40.2,30.17,South,170,0.0,7.0,51,0.00,,---,0.00,VWS V14.01,2013-02-23 01:59:00,
2013-02-22 18:04:00,58.0,40.0,30.16,ESE,112,6.0,9.0,51,0.00,,---,0.00,VWS V14.01,2013-02-23 02:04:00,
2013-02-22 18:09:00,57.8,40.3,30.17,ESE,104,0.0,9.0,52,0.00,,---,0.00,VWS V14.01,2013-02-23 02:09:00,
2013-02-22 18:14:00,57.6,40.1,30.17,East,101,7.0,8.0,52,0.00,,---,0.00,VWS V14.01,2013-02-23 02:14:00,
2013-02-22 18:19:00,57.4,39.9,30.16,ESE,105,5.0,11.0,52,0.00,,---,0.00,VWS V14.01,2013-02-23 02:19:00,
2013-02-22 18:24:00,57.2,39.8,30.16,ESE,114,1.0,3.0,52,0.00,,---,0.00,VWS V14.01,2013-02-23 02:24:00,
2013-02-22 18:29:00,57.1,39.7,30.16,ESE,117,5.0,5.0,52,0.00,,---,0.00,VWS V14.01,2013-02-23 02:29:00,
2013-02-22 18:34:00,56.9,39.5,30.16,ESE,115,10.0,10.0,52,0.00,,---,0.00,VWS V14.01,2013-02-23 02:34:00,
2013-02-22 18:39:00,56.8,39.4,30.16,SE,134,2.0,6.0,52,0.00,,---,0.00,VWS V14.01,2013-02-23 02:39:00,
2013-02-22 18:44:00,56.7,38.8,30.17,SSE,154,2.0,5.0,51,0.00,,---,0.00,VWS V14.01,2013-02-23 02:44:00,
2013-02-22 18:49:00,56.6,38.7,30.17,SSE,159,1.0,6.0,51,0.00,,---,0.00,VWS V14.01,2013-02-23 02:49:00,
2013-02-22 18:54:00,56.6,39.2,30.18,ESE,123,4.0,6.0,52,0.00,,---,0.00,VWS V14.01,2013-02-23 02:54:00,
2013-02-22 18:59:00,56.5,39.1,30.18,SE,130,0.0,0.0,52,0.00,,---,0.00,VWS V14.01,2013-02-23 02:59:00,
2013-02-22 19:04:00,56.3,38.9,30.18,SE,130,0.0,0.0,52,0.00,,---,0.00,VWS V14.01,2013-02-23 03:04:00,
2013-02-22 19:09:00,56.2,38.8,30.18,SE,129,0.0,2.0,52,0.00,,---,0.00,VWS V14.01,2013-02-23 03:09:00,
2013-02-22 19:14:00,56.0,39.1,30.18,SE,129,2.0,2.0,53,0.00,,---,0.00,VWS V14.01,2013-02-23 03:14:00,
2013-02-22 19:19:00,55.9,39.0,30.18,SE,124,5.0,5.0,53,0.00,,---,0.00,VWS V14.01,2013-02-23 03:19:00,
2013-02-22 19:24:00,55.8,38.9,30.18,SE,136,0.0,0.0,53,0.00,,---,0.00,VWS V14.01,2013-02-23 03:24:00,
2013-02-22 19:29:00,55.7,39.3,30.18,ESE,115,1.0,6.0,54,0.00,,---,0.00,VWS V14.01,2013-02-23 03:29:00,
2013-02-22 19:34:00,55.6,39.2,30.19,ESE,123,0.0,4.0,54,0.00,,---,0.00,VWS V14.01,2013-02-23 03:34:00,
2013-02-22 19:39:00,55.5,38.7,30.19,ESE,109,0.0,4.0,53,0.00,,---,0.00,VWS V14.01,2013-02-23 03:39:00,
2013-02-22 19:44:00,55.5,38.7,30.19,SE,130,0.0,5.0,53,0.00,,---,0.00,VWS V14.01,2013-02-23 03:44:00,
2013-02-22 19:49:00,55.4,39.0,30.18,SE,138,3.0,5.0,54,0.00,,---,0.00,VWS V14.01,2013-02-23 03:49:00,
2013-02-22 19:54:00,55.3,39.0,30.17,SE,126,0.0,0.0,54,0.00,,---,0.00,VWS V14.01,2013-02-23 03:54:00,
2013-02-22 19:59:00,55.2,38.9,30.17,SE,140,0.0,4.0,54,0.00,,---,0.00,VWS V14.01,2013-02-23 03:59:00,
2013-02-22 20:04:00,55.1,38.8,30.17,SE,134,3.0,5.0,54,0.00,,---,0.00,VWS V14.01,2013-02-23 04:04:00,
2013-02-22 20:09:00,54.9,38.6,30.16,SE,146,0.0,7.0,54,0.00,,---,0.00,VWS V14.01,2013-02-23 04:09:00,
2013-02-22 20:14:00,54.9,38.6,30.18,ESE,118,7.0,7.0,54,0.00,,---,0.00,VWS V14.01,2013-02-23 04:14:00,
2013-02-22 20:19:00,54.8,38.5,30.17,SE,140,5.0,5.0,54,0.00,,---,0.00,VWS V14.01,2013-02-23 04:19:00,
2013-02-22 20:24:00,54.8,39.0,30.16,SSE,150,0.0,6.0,55,0.00,,---,0.00,VWS V14.01,2013-02-23 04:24:00,
2013-02-22 20:29:00,54.7,38.9,30.16,East,100,2.0,8.0,55,0.00,,---,0.00,VWS V14.01,2013-02-23 04:29:00,
2013-02-22 20:34:00,54.5,39.1,30.15,SE,143,0.0,4.0,56,0.00,,---,0.00,VWS V14.01,2013-02-23 04:34:00,
2013-02-22 20:39:00,54.4,39.0,30.16,SE,144,4.0,4.0,56,0.00,,---,0.00,VWS V14.01,2013-02-23 04:39:00,
2013-02-22 20:44:00,54.2,38.9,30.16,SSE,150,0.0,7.0,56,0.00,,---,0.00,VWS V14.01,2013-02-23 04:44:00,
2013-02-22 20:49:00,54.0,39.1,30.17,SSE,168,0.0,2.0,57,0.00,,---,0.00,VWS V14.01,2013-02-23 04:49:00,
2013-02-22 20:54:00,53.9,39.0,30.17,SSE,164,0.0,0.0,57,0.00,,---,0.00,VWS V14.01,2013-02-23 04:54:00,
2013-02-22 20:59:00,53.7,38.8,30.18,SSE,161,2.0,10.0,57,0.00,,---,0.00,VWS V14.01,2013-02-23 04:59:00,
2013-02-22 21:00:00,53.7,38.8,30.18,SSE,167,0.0,5.0,57,0.00,,---,0.00,VWS V14.01,2013-02-23 05:00:00,
2013-02-22 21:05:00,53.6,39.2,30.19,SSE,161,0.0,0.0,58,0.00,,---,0.00,VWS V14.01,2013-02-23 05:05:00,
2013-02-22 21:10:00,53.5,39.1,30.20,SSE,163,0.0,0.0,58,0.00,,---,0.00,VWS V14.01,2013-02-23 05:10:00,
2013-02-22 21:15:00,53.3,38.9,30.20,SSE,168,0.0,2.0,58,0.00,,---,0.00,VWS V14.01,2013-02-23 05:15:00,
2013-02-22 21:20:00,53.2,39.3,30.20,SE,136,4.0,4.0,59,0.00,,---,0.00,VWS V14.01,2013-02-23 05:20:00,
2013-02-22 21:25:00,53.2,39.3,30.20,SSE,151,0.0,6.0,59,0.00,,---,0.00,VWS V14.01,2013-02-23 05:25:00,
2013-02-22 21:30:00,53.1,39.2,30.20,SE,146,0.0,0.0,59,0.00,,---,0.00,VWS V14.01,2013-02-23 05:30:00,
2013-02-22 21:35:00,53.0,39.1,30.20,ESE,121,2.0,2.0,59,0.00,,---,0.00,VWS V14.01,2013-02-23 05:35:00,
2013-02-22 21:40:00,52.9,39.4,30.19,SE,136,5.0,6.0,60,0.00,,---,0.00,VWS V14.01,2013-02-23 05:40:00,
2013-02-22 21:45:00,52.8,39.3,30.19,SSE,156,3.0,6.0,60,0.00,,---,0.00,VWS V14.01,2013-02-23 05:45:00,
2013-02-22 21:50:00,52.7,39.2,30.19,ESE,123,7.0,12.0,60,0.00,,---,0.00,VWS V14.01,2013-02-23 05:50:00,
2013-02-22 21:55:00,52.5,39.5,30.18,SE,132,4.0,9.0,61,0.00,,---,0.00,VWS V14.01,2013-02-23 05:55:00,
2013-02-22 22:00:00,52.3,39.3,30.19,SE,128,0.0,4.0,61,0.00,,---,0.00,VWS V14.01,2013-02-23 06:00:00,
2013-02-22 22:05:00,52.2,39.2,30.19,SE,139,6.0,12.0,61,0.00,,---,0.00,VWS V14.01,2013-02-23 06:05:00,
2013-02-22 22:10:00,52.1,39.5,30.18,SE,140,11.0,11.0,62,0.00,,---,0.00,VWS V14.01,2013-02-23 06:10:00,
2013-02-22 22:15:00,52.0,39.0,30.17,SE,134,2.0,5.0,61,0.00,,---,0.00,VWS V14.01,2013-02-23 06:15:00,
2013-02-22 22:20:00,51.9,39.3,30.17,ESE,114,8.0,8.0,62,0.00,,---,0.00,VWS V14.01,2013-02-23 06:20:00,
2013-02-22 22:25:00,51.8,39.2,30.18,SE,144,9.0,9.0,62,0.00,,---,0.00,VWS V14.01,2013-02-23 06:25:00,
2013-02-22 22:30:00,51.8,39.2,30.19,SE,143,1.0,4.0,62,0.00,,---,0.00,VWS V14.01,2013-02-23 06:30:00,
2013-02-22 22:35:00,51.7,39.5,30.19,SE,139,0.0,4.0,63,0.00,,---,0.00,VWS V14.01,2013-02-23 06:35:00,
2013-02-22 22:40:00,51.7,39.9,30.20,SSE,153,4.0,6.0,64,0.00,,---,0.00,VWS V14.01,2013-02-23 06:40:00,
2013-02-22 22:45:00,51.7,39.5,30.20,SE,132,2.0,5.0,63,0.00,,---,0.00,VWS V14.01,2013-02-23 06:45:00,
2013-02-22 22:50:00,51.6,39.8,30.21,SSE,148,3.0,9.0,64,0.00,,---,0.00,VWS V14.01,2013-02-23 06:50:00,
2013-02-22 22:55:00,51.6,39.8,30.20,SSE,150,10.0,10.0,64,0.00,,---,0.00,VWS V14.01,2013-02-23 06:55:00,
2013-02-22 23:00:00,51.6,39.8,30.20,South,175,1.0,5.0,64,0.00,,---,0.00,VWS V14.01,2013-02-23 07:00:00,
2013-02-22 23:05:00,51.7,40.3,30.20,SE,145,4.0,4.0,65,0.00,,---,0.00,VWS V14.01,2013-02-23 07:05:00,
2013-02-22 23:10:00,51.7,40.3,30.20,SE,142,0.0,2.0,65,0.00,,---,0.00,VWS V14.01,2013-02-23 07:10:00,
2013-02-22 23:15:00,51.8,40.4,30.20,SSE,159,4.0,4.0,65,0.00,,---,0.00,VWS V14.01,2013-02-23 07:15:00,
2013-02-22 23:20:00,51.9,40.5,30.20,ESE,121,7.0,12.0,65,0.00,,---,0.00,VWS V14.01,2013-02-23 07:20:00,
2013-02-22 23:25:00,52.0,40.6,30.20,SE,129,5.0,5.0,65,0.00,,---,0.00,VWS V14.01,2013-02-23 07:25:00,
2013-02-22 23:30:00,52.1,40.7,30.20,SSE,159,2.0,10.0,65,0.00,,---,0.00,VWS V14.01,2013-02-23 07:30:00,
2013-02-22 23:35:00,52.1,40.7,30.20,SE,129,3.0,6.0,65,0.00,,---,0.00,VWS V14.01,2013-02-23 07:35:00,
2013-02-22 23:40:00,52.1,40.7,30.19,SSE,150,4.0,5.0,65,0.00,,---,0.00,VWS V14.01,2013-02-23 07:40:00,
2013-02-22 23:45:00,51.9,40.5,30.19,SE,128,0.0,0.0,65,0.00,,---,0.00,VWS V14.01,2013-02-23 07:45:00,
2013-02-22 23:50:00,51.7,40.3,30.19,SE,143,0.0,4.0,65,0.00,,---,0.00,VWS V14.01,2013-02-23 07:50:00,
2013-02-22 23:55:00,51.5,40.1,30.19,SSE,148,6.0,6.0,65,0.00,,---,0.00,VWS V14.01,2013-02-23 07:55:00,